[[{"header":{"parameterUnit":"m.s-1","parameterCategory":1,"la1":30.2991,"la2":30.254,"lo1":-89.0895,"lo2":-89.0444,"dy":0.0017,"dx":0.0017,"nx":28,"ny":28,"refTime":"2025-11-07T09:00:00:Z","depth":0,"parameterNumber":2,"parameterNumberName":"U-component_of_WINDS"},"data":[0,0,0,0,0,0,0,0,0,0,0,0,0,0,0,0,0,0,0,0,0,0,0,0,0,0,0,0,0,0,0,0,0,0,0,0,0,0,0,0,0,0,0,0,0,0,0,0,0,0,0,0,0,0,0,0,0,0,2.4105,2.4105,0,2.4129,2.4129,2.413,2.4138,2.4138,2.4138,2.4138,2.4163,2.4164,2.4164,0,0,0,0,0,0,0,0,0,0,0,0,0,2.4068,2.4068,2.4105,2.4105,2.4106,2.4129,2.4129,2.413,2.4138,2.4138,2.4138,2.4138,2.4163,2.4163,2.4164,0,0,0,0,0,0,0,0,0,0,0,0,0,2.4087,2.4068,2.4105,2.4113,2.4114,2.4129,2.4129,2.413,2.4138,2.4138,2.4138,2.4138,2.4162,2.4163,2.4164,2.4174,0,0,2.4168,2.4168,0,0,0,0,0,0,0,0,2.4086,2.4088,2.4111,2.4112,2.4113,2.413,2.4125,2.4145,2.4138,2.4129,2.4138,2.4138,2.4152,2.4154,2.4159,2.4175,2.4177,2.4168,2.4169,2.4169,2.417,0,0,0,0,0,0,0,2.4085,2.4087,2.4115,2.4112,2.4113,2.4115,2.4118,2.4129,2.4141,2.413,2.413,2.4133,2.4153,2.4158,2.416,2.4177,2.4168,2.4169,2.417,2.417,2.4204,2.4204,0,0,0,0,0,0,2.4082,2.4086,2.4114,2.4115,2.4099,2.4116,2.4119,2.4125,2.4141,2.4143,2.4133,2.4133,2.4156,2.4158,2.4161,2.4174,2.4169,2.417,2.4171,2.4204,2.4204,2.4205,0,0,0,0,0,0,2.4081,2.4084,2.4113,2.4101,2.4105,2.4117,2.4124,2.4126,2.4131,2.4143,2.4146,2.4136,2.4156,2.4159,2.4171,2.4175,2.4171,2.4172,2.4204,2.4204,2.4204,2.4201,0,0,0,0,0,0,2.408,2.4084,2.4087,2.4101,2.4105,2.4123,2.4124,2.4126,2.4133,2.4133,2.4147,2.4149,2.4156,2.4169,2.4172,2.4176,2.4173,2.4203,2.4204,2.4204,2.42,2.4201,2.4201,0,0,0,0,0,2.4078,2.4085,2.4087,2.4091,2.411,2.4123,2.4125,2.4133,2.4133,2.4137,2.4145,2.4149,2.4174,2.4171,2.4174,2.4178,2.4203,2.4204,2.4204,2.42,2.4201,2.4201,0,0,0,0,0,0,2.4071,2.4087,2.409,2.4101,2.411,2.4124,2.4129,2.4133,2.4143,2.4143,2.4153,2.4156,2.4167,2.4174,2.417,2.419,2.4189,2.419,2.4185,2.4185,2.4186,2.4184,2.4174,0,0,0,0,0,2.4071,2.408,2.4093,2.4101,2.4106,2.4117,2.4123,2.4128,2.4138,2.4143,2.4152,2.4162,2.4173,2.4179,2.4189,2.4201,2.4205,2.4206,2.4207,2.4207,2.4208,2.4216,2.4217,2.4206,2.4206,2.4206,0,0,2.407,2.408,2.4085,2.41,2.4108,2.4118,2.412,2.413,2.4137,2.4144,2.4156,2.4164,2.4176,2.4188,2.4194,2.4194,2.4212,2.4207,2.4208,2.4208,2.4217,2.4218,2.4219,2.4207,2.4207,2.4206,0,0,2.4074,2.4082,2.409,2.4098,2.4111,2.4118,2.412,2.4134,2.4139,2.4152,2.4157,2.4167,2.4184,2.4193,2.42,2.4208,2.4212,2.4211,2.4213,2.4221,2.4222,2.4223,2.4227,2.4228,2.4212,2.4212,2.4212,0,2.4071,2.4086,2.4094,2.4104,2.4111,2.4118,2.4127,2.4135,2.415,2.4155,2.4155,2.4178,2.4187,2.4202,2.4204,2.4209,2.4212,2.421,2.4221,2.4222,2.4223,2.4227,2.4228,2.4212,2.4212,2.4212,2.4212,0,2.4083,2.4093,2.4098,2.4113,2.4121,2.413,2.4141,2.4147,2.4152,2.416,2.4174,2.4184,2.4197,2.4201,2.4206,2.4218,2.4218,2.4219,2.4219,2.4223,2.4227,2.4229,2.4212,2.4212,2.4212,2.4212,0,0,2.4081,2.4102,2.4104,2.4111,2.4126,2.4134,2.4145,2.4158,2.4164,2.4174,2.4184,2.4199,2.4201,2.4209,2.4215,2.4222,2.4229,2.4222,2.4223,2.4224,2.4244,2.4243,2.4245,2.4232,2.4232,2.4232,2.4243,0,2.4088,2.4106,2.4115,2.413,2.414,2.4147,2.4156,2.4167,2.4175,2.4185,2.4193,2.4204,2.4205,2.421,2.4217,2.4227,2.4233,2.4226,2.4242,2.4242,2.4239,2.4247,2.4246,2.4255,2.4245,2.4245,2.4245,0,2.4097,2.4108,2.4124,2.4139,2.4144,2.4152,2.4165,2.4174,2.4187,2.4192,2.4202,2.4208,2.422,2.4218,2.4236,2.423,2.4237,2.4243,2.4244,2.4246,2.4244,2.425,2.4258,2.426,2.4248,2.4247,2.4247,0,2.4096,2.4115,2.4127,2.4133,2.4151,2.4157,2.4164,2.4177,2.4184,2.4196,2.4202,2.4215,2.4222,2.4232,2.4242,2.424,2.4259,2.4258,2.4264,2.4264,2.4268,2.4267,2.4278,2.4271,2.4271,2.4271,2.4271,0,2.4102,2.4112,2.4127,2.4134,2.4146,2.4156,2.4168,2.4176,2.4187,2.4197,2.4204,2.4214,2.4226,2.4237,2.4244,2.4258,2.4261,2.4266,2.4268,2.4266,2.4265,2.4271,2.4271,2.4271,2.4271,2.4271,2.4271,0,2.4102,2.4113,2.4127,2.4143,2.4147,2.4155,2.4169,2.4177,2.4186,2.4198,2.4202,2.4215,2.4229,2.424,2.4257,2.4262,2.4277,2.4279,2.4273,2.4274,2.428,2.4279,2.4295,2.4298,2.4288,2.4288,2.4288,0,2.4105,2.4113,2.4131,2.4138,2.4146,2.4157,2.4165,2.4176,2.4184,2.42,2.4207,2.4221,2.4233,2.4254,2.4266,2.428,2.4282,2.4287,2.4285,2.4282,2.4284,2.4283,2.4285,2.4287,2.4287,2.4287,2.4287,0,2.4111,2.4116,2.4127,2.4141,2.4151,2.4162,2.4174,2.418,2.4193,2.4202,2.4216,2.4225,2.4244,2.4258,2.4273,2.4282,2.4287,2.4288,2.4291,2.4288,2.4285,2.4288,2.4274,2.4288,2.4288,2.4288,2.4288,2.4288,2.4113,2.4121,2.4135,2.4148,2.4158,2.4169,2.4178,2.4188,2.42,2.4216,2.4221,2.4236,2.425,2.4271,2.428,2.4292,2.4293,2.4296,2.4297,2.4297,2.4298,2.4283,2.4295,2.4295,2.4295,2.4295,2.4295,0,2.4119,2.4129,2.4141,2.4157,2.4168,2.4172,2.4186,2.4194,2.4207,2.422,2.4232,2.4249,2.4263,2.4276,2.4291,2.4299,2.4302,2.4302,2.4302,2.4304,2.4296,2.4293,2.43,2.43,2.43,2.43,2.43,2.43,2.4124,2.4138,2.4145,2.4164,2.4174,2.4189,2.4196,2.4207,2.4217,2.4236,2.4248,2.4256,2.4269,2.4286,2.43,2.4303,2.4309,2.4309,2.4313,2.4305,2.4305,2.4304,2.4301,2.431,2.431,2.4321,2.4321,2.4321]},{"header":{"parameterUnit":"m.s-1","parameterCategory":1,"la1":30.2991,"la2":30.254,"lo1":-89.0895,"lo2":-89.0444,"dy":0.0017,"dx":0.0017,"nx":28,"ny":28,"refTime":"2025-11-07T09:00:00:Z","depth":0,"parameterNumber":3,"parameterNumberName":"V-component_of_WINDS"},"data":[0,0,0,0,0,0,0,0,0,0,0,0,0,0,0,0,0,0,0,0,0,0,0,0,0,0,0,0,0,0,0,0,0,0,0,0,0,0,0,0,0,0,0,0,0,0,0,0,0,0,0,0,0,0,0,0,0,0,2.6121,2.6121,0,2.614,2.614,2.614,2.6172,2.6173,2.6173,2.6174,2.619,2.619,2.619,0,0,0,0,0,0,0,0,0,0,0,0,0,2.611,2.611,2.6121,2.6121,2.6122,2.614,2.614,2.6141,2.6172,2.6173,2.6174,2.6174,2.619,2.619,2.619,0,0,0,0,0,0,0,0,0,0,0,0,0,2.6121,2.611,2.6121,2.614,2.6142,2.614,2.614,2.6141,2.6172,2.6173,2.6174,2.6175,2.619,2.619,2.619,2.6171,0,0,2.619,2.619,0,0,0,0,0,0,0,0,2.612,2.6121,2.6137,2.6138,2.6141,2.6155,2.6143,2.6151,2.6172,2.616,2.6174,2.6175,2.6178,2.6179,2.618,2.6172,2.6172,2.619,2.6189,2.6189,2.6189,0,0,0,0,0,0,0,2.6119,2.612,2.6129,2.6137,2.6139,2.6146,2.6149,2.6144,2.6164,2.6161,2.6164,2.6166,2.6179,2.618,2.6181,2.6173,2.619,2.6189,2.6189,2.6189,2.615,2.6149,0,0,0,0,0,0,2.6116,2.612,2.6128,2.6129,2.6132,2.6146,2.6149,2.6149,2.6164,2.6167,2.6165,2.6167,2.618,2.6181,2.6181,2.6159,2.6189,2.6189,2.6189,2.6151,2.6149,2.6148,0,0,0,0,0,0,2.6116,2.6117,2.6127,2.6125,2.6127,2.6145,2.6146,2.6149,2.615,2.6167,2.617,2.6163,2.6181,2.6182,2.6174,2.616,2.6189,2.6189,2.6152,2.615,2.6149,2.6116,0,0,0,0,0,0,2.6115,2.6116,2.611,2.6125,2.6127,2.6119,2.6145,2.6149,2.615,2.6153,2.6165,2.6168,2.6182,2.6174,2.6173,2.6161,2.6189,2.6153,2.6151,2.6149,2.6118,2.6113,2.6109,0,0,0,0,0,2.6115,2.6099,2.6109,2.611,2.6119,2.6119,2.612,2.6136,2.6149,2.6142,2.6153,2.6168,2.6162,2.6173,2.6172,2.616,2.6154,2.6151,2.6149,2.612,2.6114,2.6109,0,0,0,0,0,0,2.608,2.6101,2.6113,2.6101,2.6108,2.6124,2.6116,2.613,2.6132,2.6135,2.6155,2.6157,2.6146,2.6152,2.6163,2.6142,2.616,2.6158,2.6138,2.6133,2.6128,2.6126,2.6189,0,0,0,0,0,2.6072,2.6071,2.6089,2.6077,2.608,2.6097,2.6098,2.611,2.6117,2.612,2.613,2.6136,2.6136,2.6135,2.6135,2.612,2.6122,2.6111,2.6107,2.6103,2.61,2.6092,2.6087,2.6141,2.6141,2.6141,0,0,2.6053,2.6064,2.6062,2.607,2.6077,2.6074,2.6099,2.6095,2.6094,2.6119,2.6112,2.612,2.6128,2.6116,2.6111,2.612,2.6086,2.61,2.6097,2.6096,2.6089,2.6084,2.6079,2.614,2.614,2.614,0,0,2.6018,2.6027,2.6018,2.6025,2.6035,2.6047,2.6045,2.6059,2.6065,2.6059,2.6078,2.6076,2.6075,2.608,2.6082,2.605,2.6064,2.605,2.6027,2.6018,2.6014,2.601,2.5998,2.5993,2.6048,2.6048,2.6047,0,2.5993,2.5991,2.6011,2.6006,2.6009,2.6034,2.6024,2.603,2.6039,2.604,2.6051,2.6051,2.6058,2.6047,2.604,2.6041,2.6038,2.6048,2.6013,2.601,2.6006,2.5995,2.599,2.6046,2.6046,2.6046,2.6046,0,2.596,2.5958,2.5949,2.5959,2.5961,2.5954,2.5972,2.5972,2.5984,2.5995,2.5988,2.5998,2.6001,2.5999,2.6011,2.599,2.5996,2.601,2.6029,2.5999,2.5988,2.5984,2.6043,2.6044,2.6044,2.6045,0,0,2.5901,2.5924,2.592,2.5925,2.5939,2.5938,2.5932,2.5936,2.5934,2.5941,2.5935,2.5935,2.5948,2.5951,2.5964,2.5957,2.593,2.5971,2.5972,2.5962,2.5906,2.5895,2.5889,2.594,2.5939,2.5938,2.5905,0,2.5868,2.5859,2.5878,2.5865,2.5863,2.5888,2.5882,2.589,2.59,2.59,2.5911,2.5909,2.5928,2.5929,2.5924,2.5934,2.5918,2.5937,2.5934,2.5933,2.5929,2.5884,2.5871,2.584,2.5901,2.5901,2.59,0,2.5827,2.5832,2.5819,2.5835,2.5835,2.583,2.5835,2.5835,2.5844,2.5852,2.5856,2.5871,2.5866,2.5885,2.5877,2.589,2.589,2.5895,2.5894,2.5893,2.5914,2.588,2.583,2.5825,2.5894,2.5894,2.5895,0,2.5784,2.5788,2.5781,2.5785,2.5803,2.5799,2.5806,2.5817,2.5818,2.5823,2.5823,2.5827,2.5828,2.5831,2.5846,2.5859,2.5836,2.5857,2.5841,2.5841,2.5834,2.5834,2.5782,2.5836,2.5837,2.5837,2.5837,0,2.5744,2.5734,2.5762,2.5758,2.5748,2.577,2.5759,2.5769,2.5778,2.5775,2.5797,2.5793,2.5815,2.5814,2.5826,2.5817,2.5818,2.5823,2.5826,2.5821,2.582,2.582,2.5822,2.5835,2.5836,2.5836,2.5836,0,2.5693,2.5712,2.5706,2.5724,2.5729,2.572,2.5736,2.5732,2.5744,2.574,2.5741,2.5759,2.5759,2.5776,2.5778,2.5787,2.5772,2.578,2.5769,2.5771,2.5754,2.5755,2.5698,2.5692,2.5752,2.5751,2.5751,0,2.5665,2.5659,2.5678,2.5678,2.5685,2.5685,2.5687,2.5708,2.5709,2.572,2.5714,2.5716,2.5718,2.5717,2.573,2.5732,2.5739,2.572,2.574,2.5734,2.5737,2.5737,2.5736,2.5715,2.5714,2.5713,2.5713,0,2.5614,2.5624,2.5626,2.5633,2.5635,2.564,2.5647,2.5646,2.5669,2.5669,2.567,2.5672,2.5676,2.5677,2.5682,2.5688,2.5704,2.5707,2.5703,2.5696,2.569,2.5692,2.5756,2.5707,2.5708,2.5708,2.5709,2.5709,2.5573,2.5569,2.5581,2.5584,2.5592,2.5598,2.5595,2.5608,2.5609,2.5614,2.5627,2.5626,2.5635,2.5644,2.5649,2.5648,2.5657,2.5652,2.5651,2.5649,2.5645,2.5691,2.5649,2.5649,2.5649,2.5649,2.5649,0,2.5521,2.5531,2.5534,2.5543,2.5545,2.5562,2.557,2.557,2.5569,2.5578,2.558,2.5581,2.5583,2.5597,2.56,2.5596,2.5603,2.5596,2.5595,2.5596,2.5637,2.5639,2.559,2.559,2.559,2.559,2.559,2.559,2.5495,2.5488,2.55,2.5497,2.5507,2.5507,2.551,2.5516,2.5523,2.5523,2.5525,2.5535,2.5545,2.5549,2.5551,2.5555,2.5555,2.5545,2.5551,2.5588,2.5594,2.5599,2.5601,2.5545,2.5545,2.5511,2.551,2.551]}]]